This is the latest recevied weather packets stored in our database for station/object N6RDS-8. If no packets are shown the sender has not sent any weather packets the latest 10 day(s).
| Time | Temp. | Humidity | Pressure | Rain* | Wind** | Luminosity | Snow |
|---|---|---|---|---|---|---|---|
| 1778186512 | 29.44° C | 18% | 1016.2 hPa | 0 mm | - | 840 W/m² | - |
| 1778186209 | 30° C | 19% | 1016.4 hPa | 0 mm | - | 824 W/m² | - |
| 1778185906 | 30° C | 18% | 1016.2 hPa | 0 mm | - | 825 W/m² | - |
| 1778185602 | 29.44° C | 18% | 1016.1 hPa | 0 mm | - | 833 W/m² | - |
| 1778185298 | 29.44° C | 18% | 1016.7 hPa | 0 mm | - | 878 W/m² | - |
| 1778184993 | 29.44° C | 18% | 1016.6 hPa | 0 mm | - | 734 W/m² | - |
| 1778184691 | 29.44° C | 19% | 1016.8 hPa | 0 mm | - | 863 W/m² | - |
| 1778184386 | 28.33° C | 19% | 1016.8 hPa | 0 mm | - | 869 W/m² | - |
| 1778184083 | 28.89° C | 18% | 1016.8 hPa | 0 mm | - | 885 W/m² | - |
| 1778183780 | 28.89° C | 19% | 1016.9 hPa | 0 mm | - | 881 W/m² | - |
| 1778183477 | 27.78° C | 19% | 1017 hPa | 0 mm | - | 888 W/m² | - |
| 1778183174 | 27.78° C | 19% | 1017 hPa | 0 mm | - | 259 W/m² | - |
| 1778182869 | 29.44° C | 19% | 1017.1 hPa | 0 mm | - | 840 W/m² | - |
| 1778182566 | 28.89° C | 19% | 1017.1 hPa | 0 mm | - | 836 W/m² | - |
| 1778182263 | 28.33° C | 19% | 1017.1 hPa | 0 mm | - | 853 W/m² | - |
| 1778181959 | 26.67° C | 22% | 1017.4 hPa | 0 mm | - | 881 W/m² | - |
| 1778181657 | 26.11° C | 22% | 1017.4 hPa | 0 mm | - | 167 W/m² | - |
| 1778181352 | 26.11° C | 21% | 1017.6 hPa | 0 mm | - | 252 W/m² | - |
| 1778181049 | 26.67° C | 22% | 1017.7 hPa | 0 mm | - | 228 W/m² | - |
| 1778180746 | 27.22° C | 21% | 1017.6 hPa | 0 mm | - | 815 W/m² | - |
| 1778180445 | 26.67° C | 21% | 1017.7 hPa | 0 mm | - | 842 W/m² | - |
| 1778180143 | 26.67° C | 22% | 1017.8 hPa | 0 mm | - | 840 W/m² | - |
| 1778179839 | 25.56° C | 22% | 1017.8 hPa | 0 mm | - | 901 W/m² | - |
| 1778179538 | 25.56° C | 23% | 1017.9 hPa | 0 mm | - | 773 W/m² | - |
| 1778179235 | 25.56° C | 23% | 1018.1 hPa | 0 mm | - | 159 W/m² | - |
* Rain latest hour (hover to see other rain measurements)
** Current wind speed in m/s (hover to see current wind gust speed)